Lid_Strength_Index
11 12 11 11 11 10 10 9 7 6 5 5 4 2 2 2 2 2 2 3 3 3
12 12 12 11 10 10 9 9 8 7 6 5 5 4 2 2 2 2 2 2 2 2
12 11 11 10 10 10 9 9 8 8 6 5 4 4 2 2 2 2 3 3 3 4
12 11 11 11 11 10 9 9 9 8 6 6 5 3 2 3 4 5 6 6 6 6
11 11 11 11 11 10 10 9 9 8 7 7 7 5 5 6 6 7 8 8 8 9
11 11 11 11 11 10 9 9 9 8 8 8 8 8 8 8 9 10 10 9 9 9
12 12 11 11 11 11 10 10 9 9 9 9 9 9 9 10 10 10 11 11 11 11
12 12 12 12 11 11 11 10 10 10 10 10 10 9 9 10 10 11 12 12 12 12
12 12 12 12 12 12 12 11 11 11 11 10 10 10 10 10 11 11 12 12 12 12
13 14 13 12 12 13 13 12 12 12 11 11 11 10 11 11 11 11 12 12 12 13
14 15 14 13 13 13 13 13 12 12 12 12 11 11 11 12 12 12 13 12 12 13
14 14 14 14 14 14 13 13 13 13 12 12 12 11 12 12 13 13 13 13 13 13
14 14 14 15 15 15 14 14 14 14 13 13 13 12 12 13 13 14 14 13 13 13
15 15 15 15 15 15 15 15 16 16 16 15 14 12 12 12 13 13 14 14 14 13